Location: Milton
(43.5183°N, 79.8775°W)
Time: 15:48:40
(UTC+00:00)

UNISAT 6 - Visible Passes

Search period start: 20 March 2023 00:00
Search period end: 30 March 2023 00:00
Orbit: 602 x 680 km, 97.7° (Epoch: 19 March)

Date Brightness Start Highest point End Pass type
(mag) Time Alt. Az. Time Alt. Az. Time Alt. Az.
20 Mar ? 08:36:36 10° ENE 08:37:26 10° ENE 08:38:17 10° NE visible
20 Mar ? 10:08:59 10° SSE 10:13:16 86° WSW 10:17:41 10° NNW visible
21 Mar ? 08:58:06 10° ESE 09:00:59 18° ENE 09:03:56 10° NNE visible
21 Mar ? 10:33:03 10° S 10:37:10 46° W 10:41:25 10° NNW visible
21 Mar ? 23:58:39 10° N 00:02:32 27° WNW 00:06:26 10° SW visible
22 Mar ? 09:20:52 10° SE 09:24:37 30° ENE 09:28:27 10° N visible
23 Mar ? 00:23:13 10° NNW 00:26:10 17° WNW 00:29:06 10° WSW visible
23 Mar ? 09:44:08 10° SSE 09:48:19 52° ENE 09:52:37 10° N visible
24 Mar ? 00:49:19 10° NW 00:49:41 10° WNW 00:50:04 10° WNW visible
24 Mar ? 08:35:23 10° ENE 08:36:18 11° ENE 08:37:12 10° NE visible
24 Mar ? 10:07:47 10° SSE 10:12:06 87° WSW 10:16:34 10° NNW visible
25 Mar ? 08:56:53 10° ESE 08:59:49 18° ENE 09:02:47 10° NNE visible
25 Mar ? 10:31:49 10° S 10:35:59 48° W 10:40:18 10° NNW visible
26 Mar ? 09:19:38 10° SE 09:23:25 30° ENE 09:27:17 10° N visible
27 Mar ? 00:21:59 10° NNW 00:24:59 17° WNW 00:27:58 10° WSW visible
27 Mar ? 09:42:52 10° SSE 09:47:05 51° ENE 09:51:26 10° N visible
28 Mar ? 00:47:48 10° NW 00:48:29 10° WNW 00:49:11 10° WNW visible
28 Mar ? 08:34:05 10° ENE 08:35:03 11° ENE 08:36:01 10° NE visible
28 Mar ? 10:06:29 10° SSE 10:10:51 88° WSW 10:15:22 10° NNW visible
29 Mar ? 08:55:35 10° ESE 08:58:33 18° ENE 09:01:33 10° NNE visible
29 Mar ? 10:30:28 10° S 10:34:42 49° W 10:39:04 10° NNW visible
